Weather History for Sitka, AK

Change the Weather History Date:

Sunday, June 23, 2013

  Actual Average Record
Temperature  
Mean Temperature 58 °F -  
Max Temperature 64 °F 58 °F 71 °F (1983)
Min Temperature 52 °F 47 °F 42 °F (2000)
Degree Days  
Heating Degree Days 7    
Growing Degree Days 8 (Base 50)    
Moisture  
Dew Point 53 °F    
Average Humidity 89    
Maximum Humidity 100    
Minimum Humidity 72    
Precipitation  
Precipitation 0.00 in - - ()
Sea Level Pressure  
Sea Level Pressure 29.76 in    
Wind  
Wind Speed 3 mph (West)    
Max Wind Speed 7 mph    
Max Gust Speed -    
Visibility 10 miles    
Events      
Averages and records for this station are not official NWS values.
T = Trace of Precipitation, MM = Missing Value Source: NWS Daily Summary

Daily Weather History Graph

Daily Weather History Graph

Search for Another Location

Airport:

Trip Planner

Search our weather history database for the weather conditions in past years. The results will help you decide how hot, cold, wet, or windy it might be!

Date:

Astronomy

Jun. 23, 2013 Rise Set
Actual Time 4:06 AM AKDT 10:00 PM AKDT
Civil Twilight 2:58 AM AKDT 11:09 PM AKDT
Nautical Twilight 1:36 AM AKDT 12:31 AM AKDT
Astronomical Twilight Sun does not rise Sun does not rise
Moon 9:54 PM AKDT (6/23) 4:51 AM AKDT (6/23)
Length of Visible Light 20h 10m
Length of Day
17h 53m
Full, 100% of the Moon is Illuminated
Jun 23
Full
Jun 29
Last Quarter
Jul 7
New
Jul 15
First Quarter
Jul 22
Full

Hourly Weather History & Observations

Time (AKDT) Temp. Dew Point Humidity Pressure Visibility Wind Dir Wind Speed Gust Speed Precip Events Conditions
12:53 AM 53.1 °F 52.0 °F 96% 29.91 in 10.0 mi NNW 4.6 mph - N/A   Overcast
1:53 AM 53.1 °F 52.0 °F 96% 29.90 in 10.0 mi NNE 5.8 mph - N/A   Overcast
2:11 AM 53.6 °F 53.6 °F 100% 29.88 in 10.0 mi Calm Calm - N/A   Scattered Clouds
2:31 AM 53.6 °F 51.8 °F 94% 29.88 in 10.0 mi Calm Calm - N/A   Mostly Cloudy
2:53 AM 53.1 °F 52.0 °F 96% 29.87 in 10.0 mi Calm Calm - N/A   Overcast
3:53 AM 53.1 °F 51.1 °F 93% 29.87 in 10.0 mi West 4.6 mph - N/A   Overcast
4:53 AM 52.0 °F 52.0 °F 100% 29.86 in 9.0 mi Calm Calm - N/A   Overcast
5:53 AM 53.1 °F 52.0 °F 96% 29.83 in 10.0 mi NNW 6.9 mph - N/A   Overcast
6:53 AM 54.0 °F 53.1 °F 97% 29.81 in 10.0 mi Calm Calm - N/A   Overcast
7:17 AM 53.6 °F 53.6 °F 100% 29.80 in 10.0 mi Calm Calm - N/A   Mostly Cloudy
7:36 AM 53.6 °F 51.8 °F 94% 29.79 in 10.0 mi Calm Calm - N/A   Scattered Clouds
7:50 AM 53.6 °F 51.8 °F 94% 29.79 in 10.0 mi Calm Calm - N/A   Mostly Cloudy
7:53 AM 54.0 °F 52.0 °F 93% 29.79 in 10.0 mi Calm Calm - N/A   Scattered Clouds
8:53 AM 55.9 °F 54.0 °F 93% 29.77 in 10.0 mi NNW 5.8 mph - N/A   Clear
9:53 AM 55.9 °F 54.0 °F 93% 29.76 in 10.0 mi Calm Calm - N/A   Partly Cloudy
10:53 AM 55.9 °F 53.1 °F 90% 29.75 in 10.0 mi Calm Calm - N/A   Scattered Clouds
11:53 AM 57.9 °F 55.0 °F 90% 29.74 in 10.0 mi SSW 5.8 mph - N/A   Partly Cloudy
12:53 PM 60.1 °F 55.0 °F 83% 29.73 in 10.0 mi SW 6.9 mph - N/A   Clear
1:53 PM 59.0 °F 54.0 °F 83% 29.73 in 10.0 mi SW 6.9 mph - N/A   Mostly Cloudy
2:53 PM 57.9 °F 54.0 °F 87% 29.73 in 10.0 mi Calm Calm - N/A   Mostly Cloudy
3:53 PM 63.0 °F 55.0 °F 75% 29.70 in 10.0 mi SW 5.8 mph - N/A   Mostly Cloudy
4:53 PM 61.0 °F 54.0 °F 78% 29.68 in 10.0 mi WSW 3.5 mph - N/A   Partly Cloudy
5:53 PM 64.0 °F 55.0 °F 73% 29.66 in 10.0 mi SW 6.9 mph - N/A   Scattered Clouds
6:53 PM 63.0 °F 54.0 °F 72% 29.64 in 10.0 mi SSW 3.5 mph - N/A   Clear
7:53 PM 61.0 °F 53.1 °F 75% 29.62 in 10.0 mi WSW 3.5 mph - N/A   Clear
8:53 PM 60.1 °F 55.0 °F 83% 29.62 in 10.0 mi Calm Calm - N/A   Clear
9:53 PM 59.0 °F 54.0 °F 83% 29.62 in 10.0 mi Calm Calm - N/A   Clear
10:53 PM 59.0 °F 54.0 °F 83% 29.62 in 10.0 mi Calm Calm - N/A   Clear
11:53 PM 57.9 °F 54.0 °F 87% 29.61 in 10.0 mi NW 3.5 mph - N/A   Clear